QPF
0.01 0.01 0.01 0.03 0.04 0.03 0.02 0.02 0.02 0.01 0.01 0.01 0.03 0.04 0.03 0.02 0.03 0.03 0.03 0.03 0.03 0.02 0.02 0.03 0.03 0.03 0.03 0.02 0.03 0.04 0.04 0.06 0.07 0.07 0.08 0.09 0.12 0.14 0.12 0.09 0.07 0.05 0.04 0.03
0.02 0.01 0.01 0.02 0.04 0.03 0.02 0.02 0.02 0.02 0.01 0.02 0.02 0.03 0.03 0.03 0.03 0.03 0.03 0.03 0.03 0.03 0.02 0.02 0.02 0.02 0.02 0.03 0.03 0.04 0.04 0.05 0.06 0.07 0.09 0.09 0.09 0.13 0.13 0.10 0.07 0.06 0.05 0.04
0.02 0.01 0.02 0.03 0.03 0.03 0.02 0.01 0.02 0.02 0.01 0.02 0.02 0.03 0.03 0.03 0.02 0.02 0.03 0.02 0.03 0.03 0.03 0.03 0.03 0.03 0.02 0.02 0.03 0.04 0.05 0.05 0.06 0.07 0.07 0.08 0.08 0.08 0.09 0.07 0.06 0.05 0.05 0.04
0.03 0.02 0.02 0.02 0.02 0.03 0.02 0.01 0.01 0.02 0.02 0.03 0.03 0.03 0.03 0.04 0.03 0.03 0.03 0.03 0.02 0.02 0.03 0.03 0.03 0.04 0.04 0.03 0.04 0.04 0.05 0.05 0.05 0.07 0.07 0.07 0.07 0.07 0.08 0.07 0.06 0.04 0.04 0.03
0.03 0.02 0.01 0.01 0.01 0.02 0.02 0.01 0.01 0.01 0.02 0.02 0.02 0.02 0.02 0.02 0.02 0.02 0.02 0.02 0.02 0.02 0.02 0.03 0.03 0.04 0.04 0.05 0.05 0.05 0.06 0.06 0.05 0.06 0.07 0.08 0.08 0.06 0.07 0.07 0.08 0.06 0.05 0.04
0.03 0.02 0.01 0.01 0.01 0.01 0.01 0.01 0.01 0.01 0.01 0.01 0.01 0.02 0.03 0.03 0.03 0.02 0.02 0.02 0.02 0.02 0.02 0.03 0.03 0.04 0.04 0.05 0.05 0.05 0.05 0.07 0.06 0.06 0.06 0.07 0.08 0.08 0.07 0.07 0.08 0.07 0.06 0.05
0.02 0.02 0.01 0.00 0.00 0.01 0.02 0.01 0.01 0.01 0.01 0.01 0.01 0.02 0.02 0.02 0.02 0.02 0.02 0.02 0.02 0.02 0.02 0.03 0.03 0.03 0.04 0.05 0.05 0.05 0.05 0.05 0.06 0.06 0.07 0.07 0.07 0.07 0.08 0.09 0.07 0.07 0.07 0.06
0.02 0.02 0.01 0.00 0.01 0.01 0.01 0.01 0.01 0.01 0.01 0.01 0.01 0.01 0.01 0.01 0.01 0.01 0.02 0.02 0.02 0.02 0.03 0.03 0.03 0.04 0.04 0.05 0.05 0.04 0.05 0.06 0.06 0.05 0.06 0.07 0.07 0.07 0.07 0.07 0.08 0.07 0.06 0.06
0.01 0.01 0.00 0.01 0.01 0.01 0.01 0.01 0.01 0.01 0.01 0.01 0.01 0.01 0.01 0.01 0.01 0.01 0.02 0.02 0.02 0.02 0.03 0.03 0.04 0.04 0.04 0.05 0.05 0.04 0.05 0.05 0.05 0.06 0.06 0.08 0.07 0.06 0.07 0.07 0.07 0.06 0.06 0.05
0.01 0.01 0.00 0.01 0.01 0.01 0.02 0.02 0.02 0.01 0.01 0.01 0.01 0.01 0.01 0.01 0.01 0.01 0.02 0.02 0.02 0.02 0.03 0.03 0.04 0.05 0.05 0.05 0.05 0.05 0.05 0.05 0.04 0.05 0.06 0.07 0.08 0.06 0.05 0.05 0.05 0.06 0.06 0.06
0.02 0.01 0.01 0.01 0.01 0.01 0.02 0.01 0.01 0.00 0.00 0.01 0.01 0.01 0.01 0.01 0.01 0.01 0.01 0.02 0.02 0.02 0.03 0.04 0.04 0.06 0.06 0.07 0.07 0.06 0.05 0.04 0.04 0.04 0.04 0.05 0.06 0.06 0.05 0.04 0.04 0.05 0.05 0.05
0.02 0.01 0.02 0.02 0.02 0.02 0.01 0.01 0.01 0.00 0.00 0.00 0.00 0.00 0.00 0.00 0.00 0.01 0.01 0.01 0.02 0.02 0.03 0.04 0.05 0.06 0.07 0.08 0.07 0.06 0.04 0.03 0.03 0.04 0.03 0.03 0.04 0.06 0.06 0.05 0.05 0.04 0.04 0.04
0.02 0.02 0.03 0.03 0.02 0.01 0.01 0.01 0.00 0.00 0.00 0.00 0.00 0.00 0.00 0.00 0.00 0.00 0.01 0.01 0.01 0.02 0.03 0.04 0.05 0.05 0.06 0.08 0.07 0.05 0.04 0.03 0.03 0.02 0.03 0.03 0.04 0.05 0.06 0.06 0.06 0.05 0.04 0.03
0.02 0.02 0.02 0.01 0.01 0.01 0.00 0.00 0.00 0.00 0.00 0.00 0.01 0.01 0.00 0.00 0.00 0.00 0.00 0.01 0.01 0.02 0.03 0.04 0.05 0.05 0.06 0.07 0.07 0.06 0.04 0.03 0.03 0.02 0.02 0.03 0.04 0.04 0.04 0.06 0.07 0.06 0.05 0.03
0.01 0.01 0.01 0.01 0.01 0.01 0.01 0.01 0.01 0.01 0.00 0.01 0.01 0.01 0.01 0.01 0.00 0.00 0.00 0.00 0.01 0.01 0.02 0.03 0.04 0.05 0.06 0.06 0.07 0.07 0.05 0.04 0.03 0.03 0.03 0.04 0.04 0.04 0.04 0.04 0.05 0.06 0.06 0.04
0.01 0.01 0.01 0.01 0.01 0.01 0.01 0.01 0.01 0.01 0.00 0.01 0.01 0.01 0.01 0.01 0.01 0.00 0.00 0.01 0.01 0.01 0.02 0.03 0.04 0.05 0.06 0.06 0.06 0.06 0.06 0.05 0.04 0.04 0.05 0.04 0.05 0.05 0.05 0.04 0.04 0.04 0.04 0.04
0.01 0.01 0.01 0.01 0.01 0.01 0.01 0.01 0.01 0.01 0.01 0.01 0.01 0.01 0.01 0.01 0.01 0.01 0.01 0.01 0.01 0.01 0.02 0.03 0.04 0.05 0.06 0.06 0.06 0.06 0.06 0.06 0.06 0.06 0.06 0.06 0.05 0.05 0.05 0.04 0.04 0.03 0.03 0.03
0.01 0.01 0.01 0.01 0.01 0.01 0.01 0.01 0.01 0.01 0.01 0.01 0.01 0.01 0.01 0.01 0.01 0.01 0.01 0.01 0.01 0.01 0.02 0.03 0.04 0.05 0.06 0.06 0.06 0.06 0.06 0.06 0.06 0.06 0.06 0.05 0.05 0.05 0.05 0.04 0.03 0.03 0.03 0.03
0.01 0.01 0.01 0.01 0.01 0.01 0.01 0.01 0.01 0.01 0.01 0.01 0.01 0.01 0.01 0.01 0.01 0.01 0.01 0.01 0.01 0.01 0.02 0.03 0.04 0.04 0.05 0.06 0.06 0.06 0.05 0.06 0.06 0.05 0.05 0.05 0.05 0.05 0.04 0.03 0.04 0.03 0.02 0.02
0.01 0.01 0.01 0.01 0.01 0.01 0.01 0.01 0.01 0.01 0.01 0.01 0.01 0.01 0.01 0.01 0.01 0.01 0.01 0.01 0.01 0.02 0.03 0.03 0.03 0.04 0.05 0.06 0.06 0.05 0.05 0.05 0.05 0.04 0.04 0.04 0.04 0.03 0.03 0.03 0.03 0.03 0.02 0.02
0.01 0.01 0.01 0.01 0.01 0.00 0.00 0.00 0.01 0.01 0.01 0.01 0.01 0.01 0.01 0.01 0.02 0.01 0.01 0.01 0.01 0.02 0.02 0.03 0.03 0.04 0.04 0.05 0.05 0.05 0.05 0.05 0.04 0.04 0.04 0.03 0.03 0.02 0.02 0.02 0.03 0.03 0.02 0.02
0.01 0.01 0.01 0.01 0.00 0.00 0.01 0.01 0.01 0.01 0.01 0.01 0.01 0.01 0.01 0.01 0.01 0.02 0.01 0.01 0.02 0.02 0.02 0.02 0.03 0.04 0.04 0.04 0.05 0.05 0.04 0.04 0.04 0.04 0.04 0.03 0.02 0.02 0.02 0.02 0.02 0.02 0.02 0.02
0.01 0.01 0.01 0.01 0.01 0.01 0.01 0.01 0.01 0.01 0.01 0.01 0.01 0.01 0.01 0.01 0.01 0.01 0.01 0.02 0.02 0.02 0.02 0.02 0.03 0.03 0.03 0.03 0.03 0.04 0.04 0.03 0.03 0.03 0.03 0.03 0.02 0.02 0.02 0.02 0.02 0.02 0.02 0.02
0.01 0.01 0.01 0.01 0.01 0.01 0.01 0.01 0.01 0.01 0.01 0.01 0.01 0.01 0.01 0.01 0.01 0.01 0.01 0.01 0.01 0.02 0.02 0.02 0.02 0.02 0.02 0.02 0.02 0.03 0.03 0.02 0.02 0.02 0.03 0.03 0.02 0.02 0.02 0.02 0.02 0.02 0.02 0.02
0.01 0.01 0.01 0.01 0.01 0.01 0.00 0.00 0.00 0.01 0.00 0.01 0.01 0.01 0.01 0.01 0.01 0.01 0.01 0.01 0.01 0.01 0.01 0.02 0.02 0.02 0.02 0.01 0.01 0.02 0.02 0.02 0.02 0.02 0.02 0.02 0.02 0.02 0.02 0.02 0.02 0.02 0.02 0.02
0.01 0.01 0.01 0.01 0.01 0.01 0.01 0.01 0.00 0.00 0.00 0.00 0.01 0.01 0.01 0.01 0.01 0.01 0.01 0.01 0.01 0.01 0.01 0.01 0.01 0.01 0.01 0.01 0.01 0.01 0.01 0.01 0.01 0.01 0.01 0.01 0.02 0.01 0.01 0.01 0.01 0.01 0.01 0.01
0.01 0.01 0.01 0.01 0.01 0.01 0.01 0.01 0.00 0.00 0.00 0.01 0.00 0.00 0.00 0.01 0.01 0.01 0.01 0.01 0.01 0.01 0.01 0.01 0.01 0.01 0.01 0.01 0.01 0.01 0.01 0.01 0.01 0.01 0.01 0.01 0.01 0.01 0.01 0.01 0.01 0.01 0.01 0.01
MSLP
1012.25 1012.66 1012.84 1012.74 1012.32 1011.57 1010.53 1009.30 1007.98 1006.71 1005.60 1004.76 1004.25 1004.07 1004.17 1004.44 1004.78 1005.03 1005.12 1004.95 1004.51 1003.83 1002.98 1002.06 1001.17 1000.39 999.76 999.30 998.98 998.73 998.49 998.21 997.84 997.39 996.88 996.38 995.95 995.69 995.64 995.84 996.31 997.01 997.90 998.92
1011.39 1011.58 1011.51 1011.14 1010.47 1009.54 1008.41 1007.20 1006.02 1004.97 1004.16 1003.66 1003.49 1003.60 1003.93 1004.35 1004.74 1004.99 1005.00 1004.72 1004.16 1003.37 1002.42 1001.42 1000.47 999.63 998.95 998.44 998.06 997.76 997.48 997.16 996.80 996.38 995.94 995.53 995.24 995.12 995.22 995.56 996.14 996.94 997.91 998.99
1010.52 1010.47 1010.16 1009.55 1008.69 1007.64 1006.48 1005.34 1004.31 1003.50 1002.98 1002.79 1002.92 1003.28 1003.79 1004.32 1004.74 1004.95 1004.88 1004.49 1003.80 1002.88 1001.83 1000.73 999.68 998.76 998.00 997.41 996.96 996.59 996.26 995.93 995.58 995.22 994.87 994.59 994.45 994.48 994.74 995.24 995.95 996.86 997.92 999.07
1009.61 1009.35 1008.82 1008.04 1007.06 1005.95 1004.83 1003.79 1002.95 1002.38 1002.13 1002.20 1002.56 1003.11 1003.74 1004.32 1004.73 1004.88 1004.71 1004.20 1003.38 1002.33 1001.14 999.92 998.76 997.73 996.86 996.16 995.61 995.17 994.80 994.46 994.15 993.86 993.64 993.53 993.56 993.78 994.22 994.89 995.75 996.78 997.94 999.17
1008.60 1008.16 1007.49 1006.61 1005.59 1004.51 1003.48 1002.60 1001.96 1001.61 1001.59 1001.88 1002.41 1003.07 1003.76 1004.34 1004.70 1004.76 1004.47 1003.82 1002.86 1001.67 1000.35 998.99 997.70 996.53 995.52 994.70 994.04 993.52 993.11 992.78 992.53 992.36 992.29 992.36 992.60 993.04 993.68 994.52 995.55 996.72 997.98 999.31
1007.41 1006.86 1006.12 1005.23 1004.25 1003.28 1002.41 1001.73 1001.30 1001.17 1001.35 1001.79 1002.42 1003.14 1003.83 1004.35 1004.62 1004.57 1004.15 1003.36 1002.26 1000.93 999.47 997.97 996.53 995.20 994.05 993.09 992.33 991.74 991.30 991.00 990.83 990.80 990.91 991.19 991.66 992.31 993.16 994.19 995.38 996.68 998.07 999.49
1005.97 1005.38 1004.66 1003.85 1003.01 1002.23 1001.58 1001.13 1000.93 1001.01 1001.34 1001.89 1002.58 1003.29 1003.92 1004.36 1004.52 1004.33 1003.77 1002.86 1001.63 1000.17 998.58 996.94 995.35 993.88 992.59 991.51 990.64 989.98 989.53 989.28 989.21 989.33 989.63 990.12 990.81 991.69 992.74 993.94 995.28 996.71 998.19 999.71
1004.26 1003.71 1003.09 1002.45 1001.83 1001.30 1000.91 1000.72 1000.76 1001.02 1001.49 1002.11 1002.80 1003.47 1004.02 1004.35 1004.38 1004.07 1003.40 1002.37 1001.03 999.47 997.77 996.03 994.32 992.73 991.31 990.12 989.17 988.47 988.03 987.82 987.86 988.12 988.61 989.31 990.20 991.27 992.49 993.85 995.30 996.83 998.40 999.99
1002.36 1001.91 1001.46 1001.04 1000.69 1000.45 1000.36 1000.44 1000.71 1001.14 1001.72 1002.39 1003.07 1003.67 1004.12 1004.34 1004.26 1003.84 1003.07 1001.96 1000.56 998.94 997.17 995.36 993.57 991.90 990.40 989.13 988.12 987.41 986.98 986.84 986.97 987.37 988.02 988.88 989.94 991.16 992.52 993.97 995.51 997.10 998.72 1000.36
1000.40 1000.09 999.85 999.69 999.63 999.70 999.90 1000.24 1000.72 1001.31 1001.97 1002.66 1003.32 1003.85 1004.22 1004.33 1004.16 1003.66 1002.84 1001.70 1000.28 998.65 996.87 995.04 993.23 991.52 989.98 988.68 987.66 986.95 986.54 986.46 986.68 987.19 987.96 988.95 990.12 991.45 992.88 994.39 995.97 997.58 999.21 1000.86
998.56 998.42 998.40 998.49 998.71 999.06 999.52 1000.10 1000.76 1001.47 1002.21 1002.91 1003.53 1004.01 1004.29 1004.34 1004.10 1003.57 1002.74 1001.61 1000.23 998.64 996.92 995.13 993.35 991.67 990.15 988.86 987.86 987.16 986.80 986.78 987.07 987.65 988.50 989.56 990.79 992.16 993.62 995.15 996.71 998.30 999.92 1001.55
997.07 997.08 997.24 997.55 998.01 998.59 999.28 1000.03 1000.84 1001.64 1002.42 1003.12 1003.71 1004.13 1004.36 1004.36 1004.11 1003.58 1002.78 1001.72 1000.42 998.93 997.31 995.62 993.93 992.33 990.88 989.65 988.70 988.05 987.74 987.76 988.10 988.73 989.61 990.71 991.96 993.32 994.76 996.26 997.78 999.33 1000.90 1002.50
996.07 996.19 996.51 996.98 997.61 998.36 999.20 1000.08 1000.97 1001.83 1002.62 1003.31 1003.86 1004.25 1004.44 1004.42 1004.17 1003.68 1002.96 1001.99 1000.81 999.46 997.98 996.43 994.89 993.40 992.06 990.93 990.05 989.48 989.22 989.29 989.66 990.32 991.21 992.30 993.53 994.86 996.26 997.70 999.16 1000.66 1002.17 1003.71
995.64 995.84 996.24 996.83 997.56 998.41 999.33 1000.27 1001.20 1002.07 1002.85 1003.52 1004.04 1004.39 1004.56 1004.54 1004.32 1003.88 1003.24 1002.39 1001.35 1000.16 998.84 997.47 996.09 994.76 993.56 992.55 991.78 991.29 991.10 991.21 991.61 992.27 993.16 994.23 995.42 996.71 998.05 999.43 1000.83 1002.26 1003.71 1005.20
995.79 996.03 996.47 997.09 997.86 998.73 999.67 1000.63 1001.55 1002.41 1003.16 1003.79 1004.27 1004.60 1004.76 1004.74 1004.54 1004.17 1003.61 1002.88 1001.98 1000.95 999.82 998.62 997.42 996.27 995.23 994.36 993.71 993.32 993.20 993.36 993.78 994.46 995.33 996.37 997.53 998.76 1000.05 1001.37 1002.72 1004.09 1005.48 1006.91
996.42 996.66 997.09 997.71 998.47 999.33 1000.24 1001.17 1002.05 1002.87 1003.58 1004.17 1004.61 1004.91 1005.05 1005.03 1004.87 1004.54 1004.07 1003.44 1002.68 1001.80 1000.84 999.82 998.80 997.82 996.95 996.23 995.71 995.42 995.38 995.60 996.05 996.73 997.60 998.61 999.73 1000.93 1002.17 1003.45 1004.74 1006.06 1007.40 1008.77
997.40 997.62 998.03 998.60 999.32 1000.13 1001.00 1001.87 1002.71 1003.47 1004.13 1004.67 1005.07 1005.34 1005.46 1005.45 1005.30 1005.02 1004.60 1004.07 1003.42 1002.67 1001.86 1001.01 1000.16 999.36 998.65 998.08 997.69 997.51 997.55 997.83 998.32 999.01 999.86 1000.86 1001.95 1003.12 1004.32 1005.56 1006.82 1008.09 1009.38 1010.68
998.58 998.77 999.14 999.67 1000.33 1001.08 1001.89 1002.70 1003.48 1004.19 1004.80 1005.29 1005.66 1005.90 1006.00 1005.98 1005.83 1005.58 1005.21 1004.74 1004.19 1003.56 1002.88 1002.18 1001.49 1000.85 1000.30 999.88 999.62 999.54 999.67 1000.00 1000.52 1001.22 1002.08 1003.05 1004.12 1005.25 1006.42 1007.62 1008.84 1010.07 1011.30 1012.54
999.83 1000.00 1000.33 1000.82 1001.42 1002.12 1002.86 1003.62 1004.34 1005.00 1005.57 1006.02 1006.35 1006.55 1006.64 1006.60 1006.46 1006.22 1005.89 1005.47 1005.00 1004.47 1003.91 1003.34 1002.80 1002.31 1001.91 1001.62 1001.48 1001.51 1001.71 1002.08 1002.63 1003.34 1004.18 1005.14 1006.17 1007.27 1008.40 1009.56 1010.73 1011.91 1013.09 1014.25
1001.08 1001.23 1001.54 1001.98 1002.54 1003.19 1003.88 1004.58 1005.26 1005.86 1006.39 1006.80 1007.10 1007.28 1007.34 1007.29 1007.15 1006.92 1006.62 1006.26 1005.85 1005.41 1004.96 1004.52 1004.11 1003.76 1003.49 1003.33 1003.30 1003.41 1003.67 1004.08 1004.65 1005.34 1006.16 1007.08 1008.08 1009.13 1010.22 1011.33 1012.45 1013.57 1014.68 1015.77
1002.32 1002.47 1002.75 1003.16 1003.68 1004.28 1004.92 1005.57 1006.18 1006.75 1007.23 1007.60 1007.87 1008.02 1008.07 1008.01 1007.87 1007.66 1007.39 1007.08 1006.74 1006.39 1006.04 1005.72 1005.44 1005.21 1005.07 1005.01 1005.07 1005.25 1005.56 1005.99 1006.55 1007.23 1008.01 1008.89 1009.83 1010.82 1011.85 1012.90 1013.96 1015.02 1016.06 1017.07
1003.57 1003.72 1003.99 1004.37 1004.84 1005.39 1005.97 1006.56 1007.12 1007.63 1008.06 1008.40 1008.63 1008.76 1008.78 1008.72 1008.59 1008.41 1008.18 1007.92 1007.66 1007.40 1007.16 1006.95 1006.78 1006.67 1006.63 1006.67 1006.81 1007.04 1007.37 1007.81 1008.35 1008.99 1009.73 1010.54 1011.41 1012.34 1013.30 1014.29 1015.28 1016.28 1017.25 1018.20
1004.88 1005.03 1005.28 1005.63 1006.05 1006.54 1007.06 1007.58 1008.07 1008.52 1008.89 1009.17 1009.36 1009.46 1009.48 1009.42 1009.31 1009.15 1008.97 1008.78 1008.60 1008.44 1008.30 1008.20 1008.14 1008.13 1008.18 1008.30 1008.49 1008.76 1009.10 1009.53 1010.04 1010.64 1011.31 1012.05 1012.86 1013.71 1014.60 1015.52 1016.46 1017.39 1018.30 1019.20
1006.27 1006.42 1006.65 1006.96 1007.33 1007.75 1008.19 1008.62 1009.04 1009.40 1009.70 1009.93 1010.08 1010.15 1010.16 1010.11 1010.02 1009.91 1009.78 1009.66 1009.57 1009.49 1009.45 1009.45 1009.49 1009.57 1009.70 1009.88 1010.11 1010.40 1010.75 1011.16 1011.63 1012.17 1012.78 1013.46 1014.19 1014.97 1015.80 1016.66 1017.53 1018.41 1019.27 1020.11
1007.72 1007.87 1008.08 1008.34 1008.66 1009.00 1009.35 1009.70 1010.02 1010.30 1010.53 1010.69 1010.79 1010.84 1010.84 1010.80 1010.74 1010.68 1010.62 1010.57 1010.55 1010.57 1010.62 1010.71 1010.83 1010.99 1011.18 1011.40 1011.66 1011.96 1012.30 1012.69 1013.13 1013.62 1014.18 1014.79 1015.46 1016.18 1016.94 1017.74 1018.56 1019.38 1020.20 1021.00
1009.16 1009.32 1009.51 1009.74 1009.99 1010.26 1010.53 1010.79 1011.02 1011.21 1011.36 1011.47 1011.53 1011.56 1011.56 1011.54 1011.51 1011.49 1011.49 1011.52 1011.58 1011.68 1011.80 1011.97 1012.16 1012.37 1012.61 1012.87 1013.15 1013.46 1013.79 1014.16 1014.56 1015.02 1015.52 1016.08 1016.69 1017.35 1018.06 1018.80 1019.57 1020.34 1021.11 1021.86
1010.51 1010.67 1010.86 1011.06 1011.27 1011.47 1011.66 1011.84 1011.99 1012.12 1012.21 1012.27 1012.30 1012.32 1012.32 1012.33 1012.34 1012.37 1012.43 1012.52 1012.65 1012.81 1013.00 1013.22 1013.46 1013.72 1013.99 1014.28 1014.57 1014.88 1015.21 1015.57 1015.95 1016.37 1016.84 1017.35 1017.92 1018.53 1019.18 1019.86 1020.57 1021.28 1021.99 1022.68
Thickness
5438 5442 5442 5443 5447 5445 5446 5452 5460 5472 5470 5485 5486 5485 5486 5487 5488 5490 5491 5491 5491 5491 5492 5494 5495 5496 5497 5498 5498 5498 5498 5498 5497 5497 5497 5496 5496 5495 5495 5494 5493 5492 5491 5491
5432 5436 5435 5438 5444 5445 5446 5448 5451 5459 5469 5480 5478 5477 5476 5478 5480 5481 5483 5482 5482 5483 5484 5486 5486 5487 5487 5488 5489 5489 5489 5487 5487 5487 5486 5486 5485 5485 5484 5483 5481 5480 5480 5481
5426 5423 5431 5437 5446 5445 5446 5446 5450 5457 5471 5469 5470 5472 5472 5473 5473 5474 5475 5474 5474 5474 5475 5476 5477 5477 5477 5478 5478 5478 5478 5477 5477 5476 5476 5475 5475 5474 5473 5472 5471 5470 5470 5470
5408 5417 5429 5455 5443 5443 5445 5448 5446 5452 5458 5460 5463 5463 5463 5464 5464 5465 5466 5466 5466 5465 5466 5467 5467 5467 5468 5467 5467 5467 5467 5466 5465 5465 5465 5464 5463 5462 5462 5461 5461 5461 5460 5460
5395 5401 5419 5440 5437 5432 5434 5444 5446 5447 5452 5452 5453 5455 5457 5457 5456 5457 5457 5457 5456 5457 5457 5457 5458 5458 5457 5456 5455 5455 5455 5454 5453 5453 5453 5453 5452 5451 5451 5451 5450 5450 5450 5450
5387 5403 5421 5446 5433 5427 5431 5440 5446 5441 5442 5441 5443 5447 5452 5450 5448 5448 5448 5448 5448 5448 5448 5448 5448 5448 5447 5446 5445 5445 5444 5444 5443 5442 5442 5441 5441 5441 5441 5441 5440 5440 5440 5439
5383 5390 5412 5427 5421 5424 5432 5443 5439 5434 5434 5431 5431 5437 5439 5438 5438 5438 5439 5440 5440 5439 5439 5439 5439 5438 5437 5436 5435 5435 5434 5433 5432 5431 5431 5431 5431 5431 5431 5431 5430 5430 5430 5430
5374 5386 5414 5419 5414 5419 5428 5426 5424 5425 5424 5422 5423 5425 5427 5428 5429 5429 5430 5431 5431 5430 5430 5429 5429 5429 5428 5426 5425 5424 5424 5422 5421 5421 5420 5421 5420 5420 5420 5420 5421 5420 5420 5421
5392 5413 5416 5409 5412 5415 5413 5413 5415 5415 5415 5415 5415 5416 5418 5419 5419 5420 5420 5421 5422 5421 5421 5420 5419 5419 5419 5417 5415 5414 5413 5411 5411 5411 5410 5410 5410 5410 5410 5410 5411 5412 5412 5412
5385 5402 5404 5402 5402 5404 5404 5405 5406 5407 5408 5407 5408 5409 5409 5409 5410 5410 5410 5411 5412 5411 5411 5410 5409 5409 5408 5407 5406 5404 5403 5402 5402 5401 5401 5400 5401 5401 5401 5401 5402 5403 5403 5403
5382 5395 5396 5403 5401 5400 5399 5397 5397 5399 5400 5400 5400 5401 5401 5400 5401 5400 5401 5401 5402 5401 5401 5400 5399 5398 5397 5396 5396 5395 5394 5393 5393 5392 5392 5392 5391 5391 5392 5393 5394 5396 5396 5395
5398 5401 5396 5402 5400 5395 5392 5392 5391 5391 5392 5392 5392 5393 5392 5392 5392 5391 5391 5392 5392 5392 5392 5391 5390 5389 5388 5387 5386 5386 5386 5385 5384 5384 5383 5383 5382 5382 5383 5384 5386 5387 5387 5387
5394 5393 5390 5391 5390 5388 5387 5386 5385 5384 5384 5384 5384 5384 5384 5383 5383 5383 5383 5383 5383 5382 5382 5381 5381 5380 5379 5379 5379 5378 5377 5376 5375 5375 5374 5374 5374 5374 5374 5375 5376 5377 5378 5378
5381 5380 5381 5382 5382 5380 5378 5378 5376 5375 5375 5375 5375 5375 5374 5373 5373 5373 5373 5373 5374 5373 5372 5372 5372 5371 5371 5371 5371 5370 5369 5368 5367 5366 5366 5365 5365 5365 5365 5366 5366 5367 5368 5369
5374 5373 5373 5373 5371 5370 5369 5368 5367 5366 5365 5365 5365 5364 5363 5363 5364 5364 5364 5364 5364 5363 5363 5363 5363 5363 5363 5363 5363 5362 5361 5360 5359 5358 5357 5357 5356 5357 5356 5356 5356 5357 5358 5359
5367 5364 5363 5362 5363 5362 5360 5359 5358 5358 5357 5356 5355 5355 5355 5355 5355 5355 5354 5354 5354 5355 5355 5354 5354 5355 5355 5355 5355 5354 5354 5354 5354 5352 5351 5350 5349 5349 5348 5347 5347 5348 5349 5349
5356 5356 5355 5355 5355 5354 5353 5352 5351 5350 5349 5348 5347 5347 5346 5346 5346 5346 5346 5345 5345 5346 5346 5346 5347 5347 5348 5348 5347 5347 5347 5347 5347 5345 5344 5342 5342 5341 5340 5340 5339 5339 5339 5340
5353 5353 5352 5351 5349 5347 5345 5344 5342 5341 5340 5339 5338 5337 5337 5337 5337 5337 5337 5336 5337 5337 5338 5339 5340 5341 5341 5340 5340 5340 5340 5340 5339 5337 5336 5335 5334 5333 5333 5332 5332 5331 5331 5331
5347 5345 5344 5342 5341 5339 5337 5335 5334 5332 5331 5330 5329 5328 5328 5328 5328 5328 5328 5328 5329 5330 5331 5331 5333 5333 5333 5334 5334 5332 5331 5331 5331 5330 5329 5329 5327 5326 5325 5325 5324 5324 5323 5323
5340 5338 5336 5334 5333 5331 5329 5326 5324 5322 5321 5321 5320 5320 5320 5320 5320 5320 5320 5320 5322 5323 5324 5325 5325 5325 5325 5325 5326 5325 5325 5324 5323 5323 5322 5321 5319 5318 5318 5317 5317 5316 5316 5315
5332 5330 5329 5326 5324 5323 5320 5317 5315 5314 5313 5313 5313 5313 5313 5312 5312 5312 5312 5314 5316 5316 5317 5318 5318 5318 5318 5318 5319 5318 5317 5317 5316 5315 5314 5313 5311 5311 5310 5309 5309 5309 5308 5308
5323 5321 5320 5318 5316 5313 5311 5308 5307 5306 5305 5305 5305 5305 5305 5305 5304 5305 5305 5307 5309 5310 5310 5310 5310 5311 5311 5311 5310 5310 5310 5309 5309 5307 5306 5305 5304 5303 5303 5303 5302 5302 5302 5301
5316 5314 5311 5309 5307 5304 5302 5300 5298 5298 5298 5298 5298 5298 5298 5298 5298 5298 5300 5301 5301 5303 5303 5303 5304 5305 5305 5303 5303 5303 5302 5302 5301 5300 5300 5299 5298 5297 5297 5296 5296 5296 5295 5295
5307 5305 5303 5300 5297 5295 5293 5292 5290 5290 5289 5290 5291 5291 5291 5291 5292 5292 5293 5295 5296 5296 5296 5297 5298 5298 5297 5295 5295 5295 5295 5295 5295 5294 5293 5292 5292 5291 5291 5291 5290 5290 5290 5290
5299 5296 5294 5292 5290 5289 5287 5285 5283 5282 5281 5282 5283 5283 5283 5284 5285 5286 5286 5287 5289 5289 5289 5290 5291 5291 5290 5289 5288 5288 5288 5289 5288 5287 5287 5286 5285 5285 5285 5285 5285 5285 5285 5285
5290 5288 5287 5286 5284 5282 5280 5278 5277 5276 5275 5275 5276 5276 5276 5277 5277 5278 5280 5281 5281 5282 5282 5282 5283 5283 5282 5282 5282 5282 5282 5282 5282 5281 5281 5280 5280 5279 5279 5279 5279 5279 5279 5280
5282 5280 5279 5277 5276 5275 5273 5272 5271 5270 5269 5269 5269 5269 5270 5270 5271 5272 5273 5274 5274 5275 5275 5275 5275 5275 5275 5275 5275 5275 5276 5276 5276 5275 5275 5275 5274 5274 5274 5274 5274 5274 5274 5274